Back to catalog

MINOTAUR 4 DEB

AliveVLEO
NORAD 54256·DEBRIS·🇺🇸 United States

Launched Jul 15, 2020 from Wallops Flight Facility

Loading…

Next Passes (next 24 hours)

TLE

FreshSource: Space-Track

Epoch: Sep 14, 2026, 04:43 UTC

1 54256U 20046AK  26257.19678342  .00020879  00000-0  54790-3 0  9990
2 54256  54.2318 189.7786 0016099  95.2803 265.0053 15.38530580259965

Track MINOTAUR 4 DEB in real time with AllMySat

Download on the App Store